Regional Weather Roundup
Issued by NWS Jackson, KY

Home | Current Version | Previous Version | Graphics & Text | Print | Product List | Glossary On
Versions: 1 2 3 4 5 6 7 8 9 10 11 12 13 14 15 16 17 18 19 20 21 22 23 24 25 26 27 28 29 30 31 32 33 34 35 36 37 38 39 40 41 42 43 44 45 46 47 48 49 50
301
ASUS43 KJKL 010810
RWRJKL

EAST KENTUCKY HOURLY WEATHER ROUNDUP
NATIONAL WEATHER SERVICE JACKSON KY
400 AM EDT SUN MAY 01 2016

NOTE: "FAIR" INDICATES FEW OR NO CLOUDS BELOW 12,000 FEET WITH
NO SIGNIFICANT WEATHER AND/OR OBSTRUCTIONS TO VISIBILITY.

* THESE REPORTS ARE NOT UNDER NWS QUALITY CONTROL AND MAY NOT
  REPORT WEATHER SUCH AS PRECIPITATION AND FOG.

KYZ079-080-083-085-087-088-110-112-115-119-120-010900
...EASTERN KENTUCKY...

CITY           SKY/WX    TMP DP  RH WIND       PRES   REMARKS
JACKSON        LGT RAIN  60  59  96 VRB3      29.96R FOG
LONDON         TSTM      62  61  96 VRB3      29.96R VSB 3/4
SOMERSET*      TSTM      59  59 100 SE3       29.95F
MONTICELLO*    TSTM      63  61  93 VRB7      29.95F
WILLIAMSBURG*  CLOUDY    59  59 100 N5G20     29.96R
MIDDLESBORO*   RAIN      61  61 100 W3        29.95F
HARLAN APT*    CLOUDY    63  59  88 N3        29.96S
HAZARD APT*    HVY RAIN  61  61 100 SW3       29.96R
BLACK MTN*       N/A     55  55 100 CALM        N/A
PIKE CO APT*   HVY RAIN  60  60 100 NE7       29.96F
BIG SANDY APT* RAIN      61  61 100 SE3       29.97R
MOREHEAD APT*  LGT RAIN  63  61  94 VRB6      29.95F
$$

KYZ035-036-041-042-044-050-067-078-099-010900
...CENTRAL KENTUCKY...

CITY           SKY/WX    TMP DP  RH WIND       PRES   REMARKS
MT STERLING*   LGT RAIN  61  61 100 S7        29.93F
FLEMING/MASON* RAIN      61  60  98 SW6       29.94R
DANVILLE*      LGT RAIN  61  61 100 SW6       29.92F
RICHMOND*      CLOUDY    61  59  94 SW5       29.93R
LEXINGTON      LGT RAIN  63  61  93 S7        29.91F
FRANKFORT      CLOUDY    64  61  90 S7        29.88F
LOUISVILLE     CLOUDY    65  62  90 E3        29.87F
LEBANON*       PTSUNNY   64  64 100 S9        29.90F
BOWLING GREEN  PTCLDY    67  64  90 SW3       29.88F
$$

KYZ091>093-OHZ055-061-077-WVZ005-015-034-035-042-010900
...SOUTHERN OHIO/WEST VIRGINIA...

CITY           SKY/WX    TMP DP  RH WIND       PRES   REMARKS
COVINGTON      MOCLDY    61  61 100 SW7       29.89F
COLUMBUS       CLOUDY    57  57 100 S6        29.89S FOG
DAYTON         CLOUDY    60  59  96 SW9       29.89R FOG
WILMINGTON     LGT RAIN  60  59  96 SW9       29.87F
HUNTINGTON     RAIN      62  60  93 CALM      29.95S FOG
CHARLESTON     HVY RAIN  61  58  90 CALM      29.97F FOG
PINEVILLE*     RAIN      58  55  89 MISG      30.03F
BECKLEY        RAIN      53  51  93 SE13      30.02F FOG
$$

VAZ002-007-008-TNZ017-027-036-066-071-010900
...SOUTHWEST VIRGINIA/EAST TENNESSEE...

CITY           SKY/WX    TMP DP  RH WIND       PRES   REMARKS
WISE*          CLOUDY    59  59 100 S5        30.01S
BRISTOL        MOCLDY    61  58  90 CALM      29.98F
SEVIERVILLE*   CLOUDY    63  61  94 CALM      29.94R VSB 1/2
KNOXVILLE      LGT RAIN  63  62  97 CALM      29.95R FOG
OAK RIDGE      CLOUDY    63  62  97 CALM      29.96F
CROSSVILLE     CLOUDY    70  62  76 S6        29.97S
NASHVILLE      CLEAR     64  62  93 S5        29.90S FOG
$$

...KEY TO REMARKS...
VSB - VISIBILITY IN MILES
WCI - WIND CHILL INDEX
HX  - HEAT INDEX

$$




USA.gov is the U.S. government's official web portal to all federal, state and local government web resources and services.